Change the Weather History Date:

Saturday, August 3, 2013

  Actual Average (KTUL) Record (KTUL)
Temperature  
Mean Temperature 76 °F 84 °F  
Max Temperature 82 °F 94 °F 113 °F (2011)
Min Temperature 71 °F 73 °F 57 °F (1976)
Cooling Degree Days 12 19  
Month to date cooling degree days 57  
Year to date cooling degree days 1225  
Since 1 June cooling degree days 991  
Growing Degree Days 26 (Base 50)    
Moisture  
Dew Point 71 °F    
Average Humidity 83    
Maximum Humidity 94    
Minimum Humidity 74    
Precipitation  
Precipitation 0.22 in 0.09 in 1.82 in (1911)
Month to date precipitation 0.27  
Year to date precipitation 24.85  
Sea Level Pressure  
Sea Level Pressure 30.03 in    
Wind  
Wind Speed 8 mph (ESE)    
Max Wind Speed 17 mph    
Max Gust Speed 23 mph    
Visibility 9 miles    
Events Rain , Thunderstorm    
T = Trace of Precipitation, MM = Missing Value Source: NWS Daily Summary

Daily Weather History Graph

Daily Weather History Graph

Search for Another Location

Airport or City:

Trip Planner

Search our weather history database for the weather conditions in past years. The results will help you decide how hot, cold, wet, or windy it might be!

Date:

Astronomy

Aug. 03, 2013 Rise Set
Actual Time 6:30 AM CDT 8:25 PM CDT
Civil Twilight 6:02 AM CDT 8:53 PM CDT
Nautical Twilight 5:27 AM CDT 9:27 PM CDT
Astronomical Twilight 4:51 AM CDT 10:03 PM CDT
Moon 3:41 AM CDT (8/3) 6:07 PM CDT (8/3)
Length of Visible Light 14h 51m
Length of Day
13h 54m
Waning Crescent, 9% of the Moon is Illuminated
Aug 3
Waning Crescent
Aug 6
New
Aug 14
First Quarter
Aug 20
Full
Aug 28
Last Quarter

Hourly Weather History & Observations

Time (CDT) Temp. Heat Index Dew Point Humidity Pressure Visibility Wind Dir Wind Speed Gust Speed Precip Events Conditions
12:15 AM 82.4 °F 88.2 °F 73.4 °F 74% 29.91 in 10.0 mi South 8.1 mph - N/A   Clear
12:35 AM 80.6 °F 85.4 °F 73.4 °F 79% 29.91 in 10.0 mi South 8.1 mph - N/A   Clear
12:55 AM 80.6 °F 85.4 °F 73.4 °F 79% 29.91 in 10.0 mi South 8.1 mph - N/A   Clear
1:15 AM 80.6 °F 85.4 °F 73.4 °F 79% 29.91 in 10.0 mi South 6.9 mph - N/A   Clear
1:35 AM 80.6 °F 85.4 °F 73.4 °F 79% 29.92 in 10.0 mi South 4.6 mph - N/A   Clear
1:55 AM 80.6 °F 85.4 °F 73.4 °F 79% 29.93 in 10.0 mi SSE 5.8 mph - N/A   Clear
2:15 AM 80.6 °F 85.4 °F 73.4 °F 79% 29.92 in 10.0 mi South 5.8 mph - N/A   Clear
2:35 AM 78.8 °F - 73.4 °F 83% 29.92 in 10.0 mi South 6.9 mph - N/A   Clear
2:55 AM 78.8 °F - 73.4 °F 83% 29.92 in 10.0 mi South 5.8 mph - N/A   Clear
3:15 AM 78.8 °F - 73.4 °F 83% 29.92 in 10.0 mi South 6.9 mph - N/A   Clear
3:35 AM 78.8 °F - 73.4 °F 83% 29.95 in 10.0 mi NW 9.2 mph - N/A   Scattered Clouds
3:55 AM 80.6 °F 85.4 °F 73.4 °F 79% 29.97 in 10.0 mi WNW 5.8 mph - N/A   Scattered Clouds
4:15 AM 80.6 °F 85.4 °F 73.4 °F 79% 29.98 in 10.0 mi NW 3.5 mph - N/A   Scattered Clouds
4:35 AM 80.6 °F 84.6 °F 71.6 °F 74% 29.98 in 10.0 mi Calm Calm - N/A Rain Light Rain
4:55 AM 78.8 °F - 73.4 °F 83% 29.98 in 1.2 mi Calm Calm - N/A   Haze
5:15 AM 78.8 °F - 73.4 °F 83% 29.98 in 5.0 mi NNE 3.5 mph - N/A   Haze
5:35 AM 78.8 °F - 73.4 °F 83% 29.99 in 10.0 mi NNE 3.5 mph - N/A   Scattered Clouds
5:55 AM 78.8 °F - 73.4 °F 83% 30.00 in 10.0 mi NE 5.8 mph - N/A   Scattered Clouds
6:15 AM 78.8 °F - 71.6 °F 78% 30.01 in 10.0 mi NE 6.9 mph - N/A Rain Rain
6:35 AM 77.0 °F - 71.6 °F 83% 30.02 in 10.0 mi NE 6.9 mph - N/A Rain Light Rain
6:55 AM 77.0 °F - 71.6 °F 83% 30.02 in 10.0 mi ENE 8.1 mph - N/A Rain Light Rain
7:15 AM 75.2 °F - 71.6 °F 89% 30.06 in 10.0 mi NNW 4.6 mph - N/A Thunderstorm Unknown
7:35 AM 73.4 °F - 71.6 °F 94% 30.05 in 1.2 mi East 5.8 mph - 0.15 in Rain , Thunderstorm Thunderstorms and Rain
7:55 AM 73.4 °F - 71.6 °F 94% 30.04 in 5.0 mi East 10.4 mph - 0.18 in Rain , Thunderstorm Thunderstorms and Rain
8:15 AM 73.4 °F - 71.6 °F 94% 30.06 in 7.0 mi ESE 5.8 mph - N/A Rain , Thunderstorm Light Thunderstorms and Rain
8:35 AM 73.4 °F - 71.6 °F 94% 30.06 in 5.0 mi SE 13.8 mph - 0.02 in Rain , Thunderstorm Rain
8:55 AM 73.4 °F - 71.6 °F 94% 30.05 in 7.0 mi SE 10.4 mph - 0.03 in Rain Light Rain
9:15 AM 73.4 °F - 71.6 °F 94% 30.06 in 7.0 mi ESE 9.2 mph - N/A Rain , Thunderstorm Light Thunderstorms and Rain
9:35 AM 73.4 °F - 71.6 °F 94% 30.06 in 7.0 mi East 13.8 mph - N/A   Scattered Clouds
9:55 AM 71.6 °F - 69.8 °F 94% 30.06 in 10.0 mi ESE 17.3 mph - N/A Rain Light Rain
10:15 AM 71.6 °F - 69.8 °F 94% 30.06 in 10.0 mi East 13.8 mph - 0.01 in   Light Drizzle
10:35 AM 71.6 °F - 69.8 °F 94% 30.07 in 10.0 mi SE 10.4 mph 13.8 mph 0.01 in   Light Drizzle
10:55 AM 71.6 °F - 69.8 °F 94% 30.07 in 10.0 mi ESE 12.7 mph - 0.01 in   Clear
11:15 AM 71.6 °F - 69.8 °F 94% 30.08 in 10.0 mi SE 9.2 mph - N/A   Scattered Clouds
11:35 AM 73.4 °F - 69.8 °F 88% 30.06 in 10.0 mi ESE 15.0 mph - N/A   Scattered Clouds
11:55 AM 73.4 °F - 69.8 °F 88% 30.07 in 10.0 mi ESE 16.1 mph 23.0 mph N/A   Clear
12:15 PM 73.4 °F - 69.8 °F 88% 30.08 in 10.0 mi ESE 15.0 mph 19.6 mph N/A   Clear
12:35 PM 77.0 °F - 69.8 °F 78% 30.08 in 10.0 mi SE 17.3 mph 21.9 mph N/A   Clear
12:55 PM 77.0 °F - 69.8 °F 78% 30.07 in 10.0 mi SE 13.8 mph 19.6 mph N/A   Clear
1:15 PM 77.0 °F - 69.8 °F 78% 30.07 in 10.0 mi SE 16.1 mph 20.7 mph N/A   Clear
1:35 PM 77.0 °F - 69.8 °F 78% 30.06 in 10.0 mi SE 13.8 mph 23.0 mph N/A   Clear
1:55 PM 77.0 °F - 69.8 °F 78% 30.06 in 10.0 mi SE 12.7 mph - N/A   Clear
2:15 PM 77.0 °F - 69.8 °F 78% 30.06 in 10.0 mi SE 13.8 mph - N/A   Clear
2:35 PM 77.0 °F - 69.8 °F 78% 30.05 in 10.0 mi SSE 11.5 mph - N/A   Clear
2:55 PM 77.0 °F - 69.8 °F 78% 30.05 in 10.0 mi SE 10.4 mph - N/A   Clear
3:15 PM 77.0 °F - 69.8 °F 78% 30.05 in 10.0 mi SSE 8.1 mph - N/A   Clear
3:35 PM 78.8 °F - 69.8 °F 74% 30.05 in 10.0 mi SSE 9.2 mph - N/A   Clear
3:55 PM 78.8 °F - 71.6 °F 78% 30.05 in 10.0 mi SSE 8.1 mph - N/A   Clear
4:15 PM 78.8 °F - 69.8 °F 74% 30.04 in 10.0 mi SSE 9.2 mph - N/A   Clear
4:35 PM 78.8 °F - 69.8 °F 74% 30.04 in 10.0 mi SE 8.1 mph - N/A   Clear
4:55 PM 78.8 °F - 69.8 °F 74% 30.04 in 10.0 mi SE 4.6 mph - N/A   Clear
5:15 PM 77.0 °F - 71.6 °F 83% 30.04 in 10.0 mi ESE 8.1 mph - N/A   Clear
5:35 PM 77.0 °F - 69.8 °F 78% 30.04 in 10.0 mi ESE 8.1 mph - N/A   Clear
5:55 PM 77.0 °F - 69.8 °F 78% 30.05 in 10.0 mi ESE 5.8 mph - N/A   Clear
6:15 PM 77.0 °F - 71.6 °F 83% 30.05 in 10.0 mi East 3.5 mph - N/A Rain Light Rain
6:35 PM 77.0 °F - 71.6 °F 83% 30.04 in 10.0 mi East 6.9 mph - N/A   Drizzle
6:55 PM 77.0 °F - 71.6 °F 83% 30.04 in 10.0 mi East 4.6 mph - N/A Rain Light Rain
7:15 PM 77.0 °F - 71.6 °F 83% 30.03 in 10.0 mi East 6.9 mph - N/A   Scattered Clouds
7:35 PM 77.0 °F - 71.6 °F 83% 30.03 in 10.0 mi East 3.5 mph - N/A Rain Light Rain
7:55 PM 77.0 °F - 71.6 °F 83% 30.03 in 10.0 mi East 6.9 mph - N/A   Clear
8:15 PM 77.0 °F - 71.6 °F 83% 30.03 in 10.0 mi ESE 8.1 mph - N/A   Clear
8:35 PM 77.0 °F - 71.6 °F 83% 30.05 in 10.0 mi ENE 4.6 mph - N/A   Clear
8:55 PM 77.0 °F - 71.6 °F 83% 30.06 in 10.0 mi ENE 6.9 mph - N/A   Clear
9:15 PM 77.0 °F - 71.6 °F 83% 30.06 in 10.0 mi ENE 6.9 mph - N/A   Clear
9:35 PM 77.0 °F - 71.6 °F 83% 30.06 in 10.0 mi East 5.8 mph - N/A   Clear
9:55 PM 77.0 °F - 71.6 °F 83% 30.07 in 10.0 mi East 8.1 mph - N/A   Clear
10:15 PM 77.0 °F - 71.6 °F 83% 30.07 in 10.0 mi ESE 8.1 mph - N/A   Clear
10:35 PM 77.0 °F - 71.6 °F 83% 30.08 in 10.0 mi ESE 6.9 mph - N/A   Clear
10:55 PM 77.0 °F - 71.6 °F 83% 30.08 in 10.0 mi ESE 8.1 mph - N/A   Clear
11:15 PM 77.0 °F - 71.6 °F 83% 30.09 in 10.0 mi ESE 6.9 mph - N/A   Clear
11:35 PM 77.0 °F - 71.6 °F 83% 30.09 in 10.0 mi East 4.6 mph - N/A   Clear
11:55 PM 77.0 °F - 71.6 °F 83% 30.09 in 10.0 mi Calm Calm - N/A   Clear